Regional Weather Roundup
Issued by NWS

Home | Current Version | Previous Version | Text Only | Print | Product List | Glossary Off
Versions: 1 2 3 4 5 6 7 8 9 10 11 12 13 14 15 16 17 18 19 20 21 22 23 24 25 26 27 28 29 30 31 32 33 34 35 36 37 38 39 40 41 42 43 44 45 46 47 48 49 50

000
ASUS43 KBIS 160520
RWRND

NORTH DAKOTA REGIONAL WEATHER ROUNDUP
NATIONAL WEATHER SERVICE BISMARCK ND
1200 AM CDT TUE SEP 16 2014

NOTE: "FAIR" INDICATES FEW OR NO CLOUDS BELOW 12,000 FEET WITH NO
SIGNIFICANT WEATHER AND/OR OBSTRUCTIONS TO VISIBILITY.


NDZ001>003-009>011-017-160600-
NORTHWEST NORTH DAKOTA

CITY           SKY/WX    TMP DP  RH WIND       PRES   REMARKS
WILLISTON      CLEAR     39  33  79 CALM      30.06S
MINOT          CLEAR     48  37  65 SW7       30.06F
MINOT AFB      CLEAR     47  38  70 SW8       30.05F
$$

NDZ018>021-031>035-040>046-160600-
SOUTHWEST NORTH DAKOTA

CITY           SKY/WX    TMP DP  RH WIND       PRES   REMARKS
BISMARCK       CLEAR     46  39  76 E3        30.12F
DICKINSON      CLEAR     45  38  76 S8        30.07F
GARRISON         N/A     46  41  82 CALM      30.08F
HETTINGER ARPT CLEAR     47  38  71 SE5       30.11S
$$

NDZ004>008-012>016-024-026-027-054-160600-
NORTHEAST NORTH DAKOTA

CITY           SKY/WX    TMP DP  RH WIND       PRES   REMARKS
GRAND FORKS    CLEAR     52  40  63 SW9       30.07F
GRND FRKS AFB  CLEAR     48  42  80 SW10      30.08F
DEVILS LAKE    CLEAR     55  39  54 SW7       30.06F
$$

NDZ022-023-025-028>030-036>039-047>053-160600-
SOUTHEAST NORTH DAKOTA

CITY           SKY/WX    TMP DP  RH WIND       PRES   REMARKS
FARGO          CLEAR     54  38  54 SW14      30.13S
JAMESTOWN      CLEAR     48  38  68 S8        30.13S
$$




USA.gov is the U.S. government's official web portal to all federal, state and local government web resources and services.